SR8WXE Weather Reports


time (UTC)temp
F
wind
direction
speed
knots
gust
knots
rain 1hr
in
rain 24hr
in
rain mn
in
humidity
%
barometer
mb
20260905234803 60 260 5.2 13.9 0.00 0.00 0.00 60 1019.1
20260905234303 60 254 3.5 7.0 0.00 0.00 0.00 61 1019.1
20260905233802 60 243 2.6 9.6 0.00 0.00 0.00 61 1019.1
20260905233302 59 248 3.5 5.2 0.00 0.00 0.00 62 1019.1
20260905232802 60 272 0.0 5.2 0.00 0.00 0.00 61 1019.0
20260905232305 60 295 2.6 7.8 0.00 0.00 0.00 61 1019.0
20260905231801 60 222 3.5 7.8 0.00 0.00 0.00 60 1019.0
20260905231301 60 267 5.2 8.7 0.00 0.00 0.00 60 1019.0
20260905230801 61 277 1.7 7.0 0.00 0.00 0.00 58 1018.9
20260905230301 61 320 3.5 8.7 0.00 0.00 0.00 57 1019.0
20260905225800 61 327 0.9 8.7 0.00 0.00 0.00 56 1018.9
20260905225300 61 292 8.7 10.4 0.00 0.00 0.00 56 1018.9
20260905224800 62 277 0.9 13.9 0.00 0.00 0.00 55 1018.8
20260905224259 62 302 4.3 13.9 0.00 0.00 0.00 55 1018.7
20260905223759 62 334 1.7 12.2 0.00 0.00 0.00 55 1018.7
20260905223259 62 296 7.0 12.2 0.00 0.00 0.00 54 1018.7
20260905222759 62 270 6.1 14.8 0.00 0.00 0.00 53 1018.6
20260905222258 63 289 3.5 15.6 0.00 0.00 0.00 52 1018.6
20260905221758 62 225 8.7 9.6 0.00 0.00 0.00 53 1018.4
20260905221258 62 250 7.8 7.8 0.00 0.00 0.00 55 1018.2
20260905220757 62 251 4.3 7.0 0.00 0.00 0.00 55 1018.2
20260905220257 62 268 3.5 7.0 0.00 0.00 0.00 55 1018.1
20260905215757 62 234 2.6 6.1 0.00 0.00 0.00 56 1018.1
20260905215257 62 233 1.7 5.2 0.00 0.00 0.00 56 1018.1
20260905214756 62 232 2.6 5.2 0.00 0.00 0.00 57 1018.0
20260905214256 61 244 1.7 4.3 0.00 0.00 0.00 58 1018.0
20260905213756 61 212 0.0 4.3 0.00 0.00 0.00 61 1018.0
20260905213255 61 251 1.7 3.5 0.00 0.00 0.00 62 1018.0
20260905212755 61 229 0.9 3.5 0.00 0.00 0.00 63 1018.0
20260905212255 61 194 0.0 0.0 0.00 0.00 0.00 63 1018.0
20260905211755 62 194 0.0 0.0 0.00 0.00 0.00 61 1018.0
20260905211254 62 194 0.0 2.6 0.00 0.00 0.00 60 1017.9
20260905210754 62 209 0.0 2.6 0.00 0.00 0.00 57 1017.8
20260905210254 62 250 1.7 3.5 0.00 0.00 0.00 56 1017.9
20260905205753 63 261 2.6 4.3 0.00 0.00 0.00 55 1017.8
20260905205253 63 215 0.9 5.2 0.00 0.00 0.00 54 1017.8
20260905204753 63 240 2.6 7.0 0.00 0.00 0.00 54 1017.8
20260905204253 63 265 3.5 6.1 0.00 0.00 0.00 53 1017.8
20260905203752 63 202 0.0 6.1 0.00 0.00 0.00 54 1017.8
20260905203252 63 265 2.6 5.2 0.00 0.00 0.00 53 1017.8
20260905202752 63 253 2.6 5.2 0.00 0.00 0.00 53 1017.8
20260905202252 62 212 0.9 4.3 0.00 0.00 0.00 54 1017.8
20260905201751 62 262 0.9 4.3 0.00 0.00 0.00 54 1017.8
20260905201251 63 196 0.9 4.3 0.00 0.00 0.00 54 1017.8
20260905200751 62 220 1.7 5.2 0.00 0.00 0.00 54 1017.8
20260905200250 62 241 2.6 2.6 0.00 0.00 0.00 54 1017.7
20260905195750 62 244 1.7 3.5 0.00 0.00 0.00 54 1017.7
20260905195250 62 232 0.0 2.6 0.00 0.00 0.00 54 1017.7
20260905194750 62 244 0.9 3.5 0.00 0.00 0.00 55 1017.7
20260905194249 62 248 1.7 3.5 0.00 0.00 0.00 56 1017.7
20260905193749 61 233 0.9 2.6 0.00 0.00 0.00 57 1017.6
20260905193249 61 210 0.0 3.5 0.00 0.00 0.00 57 1017.5
20260905192748 61 240 0.9 1.7 0.00 0.00 0.00 58 1017.5
20260905192248 61 232 0.0 1.7 0.00 0.00 0.00 59 1017.5
20260905191748 61 241 1.7 1.7 0.00 0.00 0.00 60 1017.5
20260905191248 61 196 0.0 0.0 0.00 0.00 0.00 60 1017.4
20260905190747 61 196 0.0 0.0 0.00 0.00 0.00 60 1017.4
20260905190247 61 196 0.0 0.9 0.00 0.00 0.00 60 1017.4
20260905185747 61 244 0.0 0.9 0.00 0.00 0.00 60 1017.4
20260905185246 61 225 0.9 1.7 0.00 0.00 0.00 60 1017.4
20260905184746 61 225 0.0 1.7 0.00 0.00 0.00 60 1017.3
20260905184246 61 233 0.0 0.0 0.00 0.00 0.00 60 1017.2
20260905183746 61 233 0.0 0.0 0.00 0.00 0.00 60 1017.2
20260905183245 61 233 0.0 0.0 0.00 0.00 0.00 59 1017.2
20260905182745 61 233 0.0 0.0 0.00 0.00 0.00 60 1017.2
20260905182245 61 233 0.0 1.7 0.00 0.00 0.00 60 1017.2
20260905181744 61 206 0.0 0.9 0.00 0.00 0.00 60 1017.1
20260905181244 61 188 0.0 2.6 0.00 0.00 0.00 60 1017.2
20260905180744 61 192 0.0 0.0 0.00 0.00 0.00 61 1017.2
20260905180244 61 192 0.0 0.0 0.00 0.00 0.00 62 1017.3
20260905175743 61 192 0.0 0.0 0.00 0.00 0.00 60 1017.1
20260905175243 61 192 0.0 0.0 0.00 0.00 0.00 59 1017.1
20260905174743 62 192 0.0 0.0 0.00 0.00 0.00 59 1017.1
20260905174242 62 192 0.0 0.9 0.00 0.00 0.00 58 1017.0
20260905173742 63 257 0.0 0.0 0.00 0.00 0.00 55 1016.9
20260905173242 63 257 0.0 0.0 0.00 0.00 0.00 54 1016.9
20260905172742 64 257 0.0 0.0 0.00 0.00 0.00 53 1016.9
20260905172241 64 257 0.0 0.0 0.00 0.00 0.00 52 1016.9
20260905171741 64 257 0.0 0.0 0.00 0.00 0.00 51 1016.7
20260905171241 65 257 0.0 0.9 0.00 0.00 0.00 50 1016.9
20260905170740 65 253 0.0 2.6 0.00 0.00 0.00 48 1016.7
20260905170240 65 223 0.0 0.0 0.00 0.00 0.00 48 1016.6
20260905165740 65 223 0.0 0.0 0.00 0.00 0.00 48 1016.6
20260905165240 66 223 0.0 4.3 0.00 0.00 0.00 47 1016.6
20260905164739 66 302 0.9 1.7 0.00 0.00 0.00 45 1016.5
20260905164239 66 323 0.0 0.9 0.00 0.00 0.00 45 1016.5
20260905163739 67 315 0.0 4.3 0.00 0.00 0.00 44 1016.5
20260905163239 67 271 4.3 5.2 0.00 0.00 0.00 44 1016.4
20260905162738 67 248 0.9 7.0 0.00 0.00 0.00 43 1016.4
20260905162238 67 279 0.0 4.3 0.00 0.00 0.00 43 1016.3
20260905161738 68 299 0.9 5.2 0.00 0.00 0.00 43 1016.3
20260905161237 68 358 5.2 5.2 0.00 0.00 0.00 44 1016.2
20260905160737 68 274 0.9 5.2 0.00 0.00 0.00 43 1016.1
20260905160237 68 244 3.5 6.1 0.00 0.00 0.00 43 1016.0
20260905155736 68 257 3.5 7.8 0.00 0.00 0.00 44 1016.0
20260905155236 68 255 1.7 7.0 0.00 0.00 0.00 44 1015.9
20260905154736 68 303 1.7 7.8 0.00 0.00 0.00 45 1015.8
20260905154236 68 292 1.7 6.1 0.00 0.00 0.00 45 1015.8
20260905153735 68 268 4.3 7.8 0.00 0.00 0.00 45 1015.8
20260905153235 68 306 4.3 5.2 0.00 0.00 0.00 45 1015.8
20260905152735 68 261 3.5 9.6 0.00 0.00 0.00 44 1015.7
20260905152235 68 237 1.7 7.0 0.00 0.00 0.00 45 1015.7
20260905151734 68 205 1.7 6.1 0.00 0.00 0.00 45 1015.7
20260905151234 68 250 0.0 7.0 0.00 0.00 0.00 46 1015.7
20260905150734 68 275 3.5 9.6 0.00 0.00 0.00 45 1015.7
20260905150233 67 298 3.5 10.4 0.00 0.00 0.00 46 1015.7
20260905145733 68 309 2.6 11.3 0.00 0.00 0.00 47 1015.8
20260905145233 68 274 7.8 8.7 0.00 0.00 0.00 47 1015.8
20260905144733 68 246 0.9 9.6 0.00 0.00 0.00 47 1015.7
20260905144232 68 299 4.3 8.7 0.00 0.00 0.00 46 1015.8
20260905143732 68 286 3.5 11.3 0.00 0.00 0.00 45 1015.7
20260905143232 68 284 3.5 13.9 0.00 0.00 0.00 46 1015.7
20260905142731 69 292 6.1 10.4 0.00 0.00 0.00 45 1015.7
20260905142231 69 292 1.7 8.7 0.00 0.00 0.00 46 1015.7
20260905141731 69 267 0.9 11.3 0.00 0.00 0.00 45 1015.6
20260905141231 70 236 5.2 12.2 0.00 0.00 0.00 44 1015.6
20260905140730 70 285 11.3 13.0 0.00 0.00 0.00 45 1015.7
20260905140230 70 26 4.3 9.6 0.00 0.00 0.00 45 1015.6
20260905135730 70 208 2.6 11.3 0.00 0.00 0.00 44 1015.6
20260905135229 70 272 3.5 12.2 0.00 0.00 0.00 44 1015.7
20260905134729 70 239 5.2 9.6 0.00 0.00 0.00 43 1015.6
20260905134229 70 237 4.3 12.2 0.00 0.00 0.00 43 1015.6
20260905133729 70 262 1.7 9.6 0.00 0.00 0.00 44 1015.6
20260905133228 70 288 4.3 13.0 0.00 0.00 0.00 43 1015.6
20260905132728 70 295 3.5 12.2 0.00 0.00 0.00 42 1015.6
20260905132228 70 300 4.3 10.4 0.00 0.00 0.00 43 1015.6
20260905131727 70 313 4.3 8.7 0.00 0.00 0.00 44 1015.7
20260905131227 70 268 7.8 10.4 0.00 0.00 0.00 43 1015.7
20260905130727 70 240 4.3 10.4 0.00 0.00 0.00 44 1015.6
20260905130227 70 281 5.2 13.0 0.00 0.00 0.00 43 1015.7
20260905125726 70 246 7.8 11.3 0.00 0.00 0.00 42 1015.7
20260905125226 70 324 2.6 5.2 0.00 0.00 0.00 47 1015.7
20260905124726 69 239 2.6 8.7 0.00 0.00 0.00 48 1015.8
20260905124225 68 251 5.2 9.6 0.00 0.00 0.00 48 1015.8
20260905123725 69 241 4.3 8.7 0.00 0.00 0.00 47 1016.0
20260905123225 69 343 3.5 12.2 0.00 0.00 0.00 45 1016.0
20260905122725 69 241 6.1 13.9 0.00 0.00 0.00 46 1016.1
20260905122224 68 239 8.7 12.2 0.00 0.00 0.00 49 1016.1
20260905121724 68 267 2.6 9.6 0.00 0.00 0.00 48 1016.1
20260905121224 68 237 3.5 13.9 0.00 0.00 0.00 49 1016.1
20260905120724 68 222 8.7 15.6 0.00 0.00 0.00 48 1016.2
20260905120223 68 260 2.6 14.8 0.00 0.00 0.00 49 1016.3
20260905115723 68 292 2.6 13.0 0.00 0.00 0.00 48 1016.4
20260905115223 68 220 9.6 12.2 0.00 0.00 0.00 50 1016.4
20260905114722 67 248 6.1 9.6 0.00 0.00 0.00 53 1016.5
20260905114222 66 286 2.6 12.2 0.00 0.00 0.00 53 1016.6
20260905113722 66 223 7.0 12.2 0.00 0.00 0.00 53 1016.6
20260905113222 66 234 5.2 10.4 0.00 0.00 0.00 54 1016.6
20260905112721 66 257 4.3 11.3 0.00 0.00 0.00 54 1016.6
20260905112221 66 282 3.5 10.4 0.00 0.00 0.00 54 1016.6
20260905111721 65 250 7.8 13.9 0.00 0.00 0.00 54 1016.6
20260905111220 66 255 6.1 10.4 0.00 0.00 0.00 54 1016.6
20260905110720 65 253 7.0 13.0 0.00 0.00 0.00 53 1016.9
20260905110220 65 285 3.5 14.8 0.00 0.00 0.00 53 1016.9
20260905105720 66 248 2.6 15.6 0.00 0.00 0.00 51 1016.7
20260905105219 66 295 5.2 14.8 0.00 0.00 0.00 51 1016.9
20260905104719 67 253 5.2 11.3 0.00 0.00 0.00 51 1016.7
20260905104219 67 260 5.2 15.6 0.00 0.00 0.00 51 1016.5
20260905103718 67 261 7.8 13.9 0.00 0.00 0.00 49 1016.6
20260905103218 67 233 10.4 13.0 0.00 0.00 0.00 49 1016.5
20260905102718 66 116 3.5 11.3 0.00 0.00 0.00 53 1016.5
20260905102218 66 260 0.9 13.0 0.00 0.00 0.00 55 1016.4
20260905101717 65 323 4.3 10.4 0.00 0.00 0.00 56 1016.4
20260905101217 65 326 2.6 9.6 0.00 0.00 0.00 56 1016.3
20260905100717 65 281 2.6 15.6 0.00 0.00 0.00 56 1016.2
20260905100216 64 277 5.2 10.4 0.00 0.00 0.00 60 1016.2
20260905095716 64 300 6.1 9.6 0.00 0.00 0.00 62 1016.2
20260905095216 63 254 0.9 7.0 0.00 0.00 0.00 64 1016.1
20260905094716 63 234 1.7 8.7 0.00 0.00 0.00 64 1016.2
20260905094215 63 300 2.6 9.6 0.00 0.00 0.00 64 1016.2
20260905093715 62 229 3.5 8.7 0.00 0.00 0.00 66 1016.2
20260905093215 62 298 3.5 10.4 0.00 0.00 0.00 66 1016.1
20260905092714 62 344 2.6 10.4 0.00 0.00 0.00 66 1016.2
20260905092214 62 270 5.2 10.4 0.00 0.00 0.00 66 1016.3
20260905091714 62 285 3.5 11.3 0.00 0.00 0.00 66 1016.3
20260905091214 62 248 9.6 9.6 0.00 0.00 0.00 66 1016.3
20260905090713 62 248 1.7 10.4 0.00 0.00 0.00 68 1016.3
20260905090213 62 246 4.3 9.6 0.00 0.00 0.00 67 1016.3
20260905085713 62 270 2.6 13.0 0.00 0.00 0.00 67 1015.9
20260905085212 62 272 2.6 10.4 0.00 0.00 0.00 68 1015.9
20260905084712 62 264 7.0 9.6 0.00 0.00 0.00 67 1015.9
20260905084212 62 261 3.5 13.0 0.00 0.00 0.00 67 1015.9
20260905083712 62 254 4.3 11.3 0.00 0.00 0.00 67 1016.0
20260905083211 62 223 2.6 13.9 0.00 0.00 0.00 67 1016.0
20260905082711 62 236 7.8 12.2 0.00 0.00 0.00 67 1016.0
20260905082211 62 278 3.5 13.9 0.00 0.00 0.00 67 1015.9
20260905081711 62 257 4.3 13.0 0.00 0.00 0.00 67 1015.9
20260905081210 62 255 4.3 14.8 0.00 0.00 0.00 67 1016.0
20260905080710 62 344 1.7 10.4 0.00 0.00 0.00 69 1015.9
20260905080210 62 296 7.8 12.2 0.00 0.00 0.00 70 1015.7
20260905075709 62 246 7.8 13.9 0.00 0.00 0.00 70 1015.6
20260905075209 62 246 2.6 11.3 0.00 0.00 0.00 71 1015.7
20260905074709 62 250 9.6 10.4 0.00 0.00 0.00 71 1015.6
20260905074209 62 250 7.8 8.7 0.00 0.00 0.00 72 1015.4
20260905073708 62 258 4.3 11.3 0.00 0.00 0.00 71 1015.4
20260905073208 62 260 5.2 9.6 0.00 0.00 0.00 70 1015.3
20260905072708 62 309 6.1 13.9 0.00 0.00 0.00 68 1015.4
20260905072207 62 281 6.1 8.7 0.00 0.00 0.00 67 1015.4
20260905071707 62 236 2.6 13.0 0.00 0.00 0.00 67 1015.5
20260905071207 62 229 5.2 13.9 0.00 0.00 0.00 67 1015.4
20260905070707 62 45 2.6 13.0 0.00 0.00 0.00 69 1015.4
20260905070206 62 274 4.3 9.6 0.00 0.00 0.00 70 1015.3
20260905065706 62 277 3.5 14.8 0.00 0.00 0.00 70 1015.2
20260905065206 63 275 3.5 7.0 0.00 0.00 0.00 70 1015.2
20260905064705 62 288 4.3 8.7 0.00 0.00 0.00 68 1015.1
20260905064205 63 240 5.2 9.6 0.00 0.00 0.00 68 1014.9
20260905063705 63 288 5.2 11.3 0.00 0.00 0.00 67 1014.9
20260905063205 63 278 10.4 15.6 0.00 0.00 0.00 67 1014.6
20260905062704 63 320 2.6 9.6 0.00 0.00 0.00 68 1014.5
20260905062204 62 234 6.1 8.7 0.00 0.00 0.00 70 1014.4
20260905061704 62 217 5.2 10.4 0.00 0.00 0.00 69 1014.4
20260905061203 62 241 3.5 8.7 0.00 0.00 0.00 72 1014.4
20260905060703 62 262 1.7 6.1 0.00 0.00 0.00 73 1014.3
20260905060203 62 223 2.6 6.1 0.00 0.00 0.00 73 1014.3
20260905055703 62 248 1.7 10.4 0.00 0.00 0.00 73 1014.1
20260905055202 62 253 2.6 7.0 0.00 0.00 0.00 73 1014.2
20260905054702 62 250 5.2 8.7 0.00 0.00 0.00 74 1014.1
20260905054202 62 271 1.7 8.7 0.00 0.00 0.00 75 1014.0
20260905053702 62 234 6.1 8.7 0.00 0.00 0.00 75 1014.1
20260905053201 62 241 1.7 8.7 0.00 0.00 0.00 75 1014.1
20260905052701 62 241 5.2 7.0 0.00 0.00 0.00 76 1013.8
20260905052201 62 285 0.9 4.3 0.00 0.00 0.00 77 1013.9
20260905051700 61 265 4.3 7.0 0.00 0.00 0.00 77 1013.7
20260905051200 61 264 1.7 6.1 0.00 0.00 0.00 78 1013.9
20260905050700 61 222 0.0 6.1 0.00 0.00 0.00 80 1013.7
20260905050159 61 241 3.5 6.1 0.00 0.00 0.00 80 1013.5
20260905045659 61 219 0.9 7.0 0.00 0.00 0.00 81 1013.3
20260905045159 61 230 1.7 6.1 0.00 0.00 0.00 82 1013.3
20260905044659 60 203 2.6 6.1 0.00 0.00 0.00 82 1013.2
20260905044158 60 233 5.2 5.2 0.00 0.00 0.00 82 1013.1
20260905043658 60 251 2.6 6.1 0.00 0.00 0.00 82 1013.2
20260905043158 60 247 3.5 6.1 0.00 0.00 0.00 82 1013.3
20260905042657 60 227 3.5 5.2 0.00 0.00 0.00 83 1013.2
20260905042157 60 229 4.3 7.8 0.00 0.00 0.00 83 1013.2
20260905041657 60 233 3.5 7.0 0.00 0.00 0.00 83 1013.3
20260905041157 60 212 4.3 7.0 0.00 0.00 0.00 83 1013.2
20260905040656 60 230 6.1 7.0 0.00 0.00 0.00 83 1013.4
20260905040156 60 240 1.7 8.7 0.00 0.00 0.00 84 1013.3
20260905035656 60 247 4.3 5.2 0.00 0.00 0.00 84 1013.3
20260905035156 60 232 0.0 6.1 0.00 0.00 0.00 84 1013.2
20260905034655 60 230 2.6 6.1 0.00 0.00 0.00 84 1013.1
20260905034155 60 237 4.3 7.0 0.00 0.00 0.00 84 1013.0
20260905033655 60 229 2.6 5.2 0.00 0.00 0.00 83 1013.1
20260905033154 61 255 2.6 6.1 0.00 0.00 0.00 83 1013.0
20260905032654 60 251 3.5 7.0 0.00 0.00 0.00 83 1013.3
20260905032154 61 288 3.5 8.7 0.00 0.00 0.00 83 1013.3
20260905031654 61 288 2.6 7.0 0.00 0.00 0.00 84 1013.0
20260905031153 60 278 0.0 6.1 0.00 0.00 0.00 83 1012.9
20260905030653 60 220 2.6 7.0 0.00 0.00 0.00 83 1012.9
20260905030153 61 244 3.5 8.7 0.00 0.00 0.00 82 1013.0
20260905025652 61 236 2.6 6.1 0.00 0.00 0.00 82 1013.1
20260905025152 61 240 3.5 7.0 0.00 0.00 0.00 81 1013.0
20260905024652 61 309 2.6 7.8 0.00 0.00 0.00 80 1013.0
20260905024152 62 222 6.1 8.7 0.00 0.00 0.00 79 1013.2
20260905023651 63 303 5.2 8.7 0.00 0.00 0.00 75 1013.0
20260905023151 63 253 7.8 10.4 0.00 0.00 0.00 71 1013.0
20260905022651 64 279 8.7 9.6 0.00 0.00 0.00 68 1012.7
20260905022150 64 317 1.7 8.7 0.00 0.00 0.00 67 1012.7
20260905021650 65 248 3.5 13.0 0.00 0.00 0.00 65 1012.4
20260905021150 66 298 4.3 14.8 0.00 0.00 0.00 63 1012.1
20260905020650 67 232 4.3 13.0 0.00 0.00 0.00 58 1012.1
20260905020149 67 296 4.3 16.5 0.00 0.00 0.00 57 1012.0
20260905015649 67 302 5.2 12.2 0.00 0.00 0.00 58 1011.9
20260905015149 67 315 3.5 8.7 0.00 0.00 0.00 57 1011.9
20260905014648 68 293 4.3 10.4 0.00 0.00 0.00 57 1011.5
20260905014148 68 330 2.6 11.3 0.00 0.00 0.00 57 1011.5
20260905013648 68 319 3.5 13.0 0.00 0.00 0.00 57 1011.6
20260905013148 68 293 7.0 10.4 0.00 0.00 0.00 57 1011.7
20260905012647 68 270 1.7 6.1 0.00 0.00 0.00 59 1011.7
20260905012147 69 244 0.9 9.6 0.00 0.00 0.00 58 1011.4
20260905011647 69 329 4.3 6.1 0.00 0.00 0.00 57 1011.3
20260905011146 69 315 3.5 9.6 0.00 0.00 0.00 56 1011.1
20260905010646 68 222 5.2 7.8 0.00 0.00 0.00 56 1011.0
20260905010146 68 296 0.9 4.3 0.00 0.00 0.00 57 1010.7
20260905005646 68 258 0.9 5.2 0.00 0.00 0.00 56 1010.4
20260905005145 68 270 2.6 6.1 0.00 0.00 0.00 55 1010.2
20260905004645 68 239 1.7 5.2 0.00 0.00 0.00 55 1010.2
20260905004145 68 258 2.6 4.3 0.00 0.00 0.00 55 1010.2
20260905003645 69 217 1.7 5.2 0.00 0.00 0.00 54 1009.9
20260905003144 69 265 3.5 5.2 0.00 0.00 0.00 53 1009.9
20260905002644 69 216 0.9 5.2 0.00 0.00 0.00 52 1009.8
20260905002144 70 254 1.7 7.8 0.00 0.00 0.00 51 1009.7
20260905001643 70 254 5.2 11.3 0.00 0.00 0.00 50 1009.7
20260905001143 70 260 4.3 7.8 0.00 0.00 0.00 51 1009.7
20260905000643 70 261 4.3 7.0 0.00 0.00 0.00 51 1009.6
20260905000143 69 246 6.1 8.7 0.00 0.00 0.00 51 1008.9
20260904235642 69 237 1.7 7.8 0.00 0.00 0.00 51 1008.5
20260904235142 69 254 2.6 8.7 0.00 0.00 0.00 51 1008.5